TimeEST,TemperatureF,Dew PointF,Humidity,Sea Level PressureIn,VisibilityMPH,Wind Direction,Wind SpeedMPH,Gust SpeedMPH,PrecipitationIn,Events,Conditions,WindDirDegrees,DateUTC
6:00 AM,80.6,75.2,84,29.89,6.2,SSE,6.9,-,N/A,,Partly Cloudy,150,2013-05-01 11:00:00
7:00 AM,81,77,83,29.92,6,SE,4.6,,,,Scattered Clouds,140,2013-05-01 12:00:00
7:00 AM,80.6,77.0,89,29.92,6.2,SE,4.6,-,N/A,,Partly Cloudy,140,2013-05-01 12:00:00
8:00 AM,82.4,77.0,84,29.92,6.2,SE,8.1,-,N/A,,Partly Cloudy,140,2013-05-01 13:00:00
9:00 AM,82.4,77.0,84,29.92,6.2,SSE,8.1,-,N/A,,Partly Cloudy,150,2013-05-01 14:00:00
10:00 AM,86.0,77.0,74,29.95,6.2,SSE,10.4,-,N/A,,Partly Cloudy,150,2013-05-01 15:00:00
11:00 AM,84.2,77.0,79,29.95,6.2,SSE,6.9,-,N/A,,Partly Cloudy,150,2013-05-01 16:00:00
12:00 PM,86.0,78.8,79,29.92,6.2,SSE,8.1,-,N/A,,Partly Cloudy,160,2013-05-01 17:00:00
1:00 PM,88,78,66,29.93,6,South,9.2,,,,Scattered Clouds,170,2013-05-01 18:00:00
1:00 PM,86.0,78.8,79,29.92,6.2,South,9.2,-,N/A,,Partly Cloudy,170,2013-05-01 18:00:00
2:00 PM,86.0,78.8,79,29.89,6.2,SSE,8.1,-,N/A,,Scattered Clouds,150,2013-05-01 19:00:00
3:00 PM,84.2,78.8,84,29.89,6.2,SSE,9.2,-,N/A,,Partly Cloudy,160,2013-05-01 20:00:00
4:00 PM,86.0,78.8,79,29.86,6.2,SSE,9.2,-,N/A,,Scattered Clouds,150,2013-05-01 21:00:00
5:00 PM,84.2,77.0,79,29.86,6.2,SSE,8.1,-,N/A,,Scattered Clouds,150,2013-05-01 22:00:00
6:00 PM,84.2,77.0,79,29.89,6.2,SSE,8.1,-,N/A,,Mostly Cloudy,150,2013-05-01 23:00:00
7:00 PM,82,78,83,29.88,6,SSE,5.8,,,,Scattered Clouds,150,2013-05-02 00:00:00
7:00 PM,82.4,77.0,84,29.86,6.2,SSE,5.8,-,N/A,,Mostly Cloudy,150,2013-05-02 00:00:00
8:00 PM,82.4,77.0,84,29.89,6.2,SE,5.8,-,N/A,,Partly Cloudy,140,2013-05-02 01:00:00
9:00 PM,80.6,77.0,89,29.89,6.2,Variable,3.5,-,N/A,,Partly Cloudy,0,2013-05-02 02:00:00
10:00 PM,80.6,77.0,89,29.92,6.2,SE,4.6,-,N/A,,Scattered Clouds,140,2013-05-02 03:00:00